C6006 KPIE-KPIE

Flight info

Callsign C6006
Flight time 1h 7m
Altitude 9000
Route VFR
Aircraft H60/L-DV/C

Departure

Time 2026-04-25 21:55
Airport St. Petersburg Clearwater International Airport (KPIE)

Arrival

Time 2026-04-25 23:02
Airport St. Petersburg Clearwater International Airport (KPIE)
Time Latitude Longitude Altitude Speed Heading
2026-04-25 21:52 27.91295 -82.69419 17 ft 0 kts 353°
2026-04-25 21:53 27.91298 -82.69412 17 ft 1 kts 225°
2026-04-25 21:53 27.91296 -82.69414 17 ft 1 kts 226°
2026-04-25 21:53 27.91251 -82.69386 16 ft 10 kts 127°
2026-04-25 21:54 27.91233 -82.69334 16 ft 5 kts 63°
2026-04-25 21:54 27.91246 -82.69316 16 ft 2 kts 44°
2026-04-25 21:54 27.91249 -82.69312 16 ft 0 kts 44°
2026-04-25 21:54 27.91317 -82.69240 82 ft 37 kts 43°
2026-04-25 21:55 27.91784 -82.69153 213 ft 95 kts 347°
2026-04-25 21:55 27.92447 -82.69301 845 ft 101 kts 348°
2026-04-25 21:55 27.93130 -82.69435 1266 ft 99 kts 348°
2026-04-25 21:55 27.93811 -82.69580 1287 ft 103 kts 349°
2026-04-25 21:56 27.94553 -82.69898 882 ft 125 kts 300°
2026-04-25 21:56 27.94572 -82.70601 320 ft 130 kts 254°
2026-04-25 21:56 27.94202 -82.71704 151 ft 126 kts 253°
2026-04-25 21:56 27.93893 -82.72649 216 ft 125 kts 253°
2026-04-25 21:57 27.93589 -82.73575 268 ft 121 kts 253°
2026-04-25 21:57 27.93298 -82.74541 284 ft 134 kts 253°
2026-04-25 21:57 27.93025 -82.75514 319 ft 137 kts 253°
2026-04-25 21:57 27.92729 -82.76508 338 ft 138 kts 253°
2026-04-25 21:58 27.92421 -82.77508 352 ft 139 kts 253°
2026-04-25 21:58 27.92112 -82.78519 359 ft 133 kts 253°
2026-04-25 21:58 27.91810 -82.79499 361 ft 133 kts 253°
2026-04-25 21:58 27.91518 -82.80482 369 ft 132 kts 253°
2026-04-25 21:59 27.91219 -82.81475 370 ft 128 kts 253°
2026-04-25 21:59 27.90910 -82.82473 371 ft 128 kts 253°
2026-04-25 21:59 27.90616 -82.83459 373 ft 133 kts 253°
2026-04-25 22:00 27.90047 -82.85363 376 ft 131 kts 253°
2026-04-25 22:00 27.89771 -82.86328 375 ft 126 kts 253°
2026-04-25 22:00 27.89498 -82.87312 374 ft 131 kts 253°
2026-04-25 22:00 27.89207 -82.88287 370 ft 125 kts 253°
2026-04-25 22:01 27.88693 -82.89106 351 ft 144 kts 216°
2026-04-25 22:01 27.87664 -82.89159 363 ft 148 kts 171°
2026-04-25 22:01 27.86745 -82.88928 363 ft 137 kts 171°
2026-04-25 22:01 27.86128 -82.88766 363 ft 138 kts 171°
2026-04-25 22:02 27.84883 -82.88462 363 ft 139 kts 171°
2026-04-25 22:02 27.83959 -82.88221 365 ft 136 kts 171°
2026-04-25 22:02 27.83039 -82.87981 368 ft 136 kts 171°
2026-04-25 22:02 27.82119 -82.87743 365 ft 134 kts 171°
2026-04-25 22:03 27.81187 -82.87496 372 ft 137 kts 171°
2026-04-25 22:03 27.80271 -82.87245 369 ft 139 kts 171°
2026-04-25 22:03 27.79321 -82.87001 368 ft 139 kts 171°
2026-04-25 22:03 27.78484 -82.86602 380 ft 129 kts 149°
2026-04-25 22:04 27.77971 -82.85775 377 ft 136 kts 121°
2026-04-25 22:04 27.77503 -82.84739 357 ft 150 kts 121°
2026-04-25 22:04 27.77024 -82.83707 354 ft 147 kts 121°
2026-04-25 22:04 27.76543 -82.82691 352 ft 147 kts 121°
2026-04-25 22:05 27.76056 -82.81681 350 ft 146 kts 121°
2026-04-25 22:05 27.75569 -82.80667 351 ft 147 kts 121°
2026-04-25 22:05 27.75082 -82.79659 351 ft 147 kts 121°
2026-04-25 22:05 27.74597 -82.78645 350 ft 147 kts 121°
2026-04-25 22:06 27.74127 -82.77609 351 ft 150 kts 121°
2026-04-25 22:06 27.73593 -82.76676 357 ft 133 kts 143°
2026-04-25 22:06 27.72857 -82.75951 346 ft 141 kts 145°
2026-04-25 22:06 27.72067 -82.75239 349 ft 145 kts 145°
2026-04-25 22:07 27.71283 -82.74514 350 ft 147 kts 145°
2026-04-25 22:07 27.70781 -82.74016 348 ft 144 kts 145°
2026-04-25 22:07 27.69851 -82.73871 352 ft 106 kts 219°
2026-04-25 22:07 27.69153 -82.74388 346 ft 132 kts 217°
2026-04-25 22:08 27.68389 -82.74922 337 ft 130 kts 217°
2026-04-25 22:08 27.67617 -82.75500 342 ft 130 kts 217°
2026-04-25 22:08 27.67093 -82.75889 346 ft 141 kts 217°
2026-04-25 22:08 27.66046 -82.76670 351 ft 129 kts 217°
2026-04-25 22:09 27.65527 -82.77051 346 ft 141 kts 217°
2026-04-25 22:09 27.64752 -82.77630 352 ft 133 kts 217°
2026-04-25 22:09 27.63969 -82.78208 357 ft 129 kts 217°
2026-04-25 22:09 27.63203 -82.78773 359 ft 134 kts 217°
2026-04-25 22:10 27.62451 -82.79338 358 ft 133 kts 217°
2026-04-25 22:10 27.61701 -82.79911 365 ft 129 kts 217°
2026-04-25 22:10 27.60944 -82.80482 367 ft 126 kts 217°
2026-04-25 22:10 27.60189 -82.81060 365 ft 126 kts 217°
2026-04-25 22:11 27.59433 -82.81626 365 ft 130 kts 217°
2026-04-25 22:11 27.58691 -82.82214 368 ft 132 kts 217°
2026-04-25 22:11 27.57921 -82.82818 369 ft 131 kts 217°
2026-04-25 22:11 27.57144 -82.83410 371 ft 129 kts 217°
2026-04-25 22:12 27.56373 -82.83999 365 ft 133 kts 217°
2026-04-25 22:12 27.55608 -82.84594 370 ft 132 kts 217°
2026-04-25 22:12 27.54831 -82.85184 378 ft 133 kts 217°
2026-04-25 22:12 27.54324 -82.85569 372 ft 134 kts 217°
2026-04-25 22:13 27.53322 -82.86340 378 ft 131 kts 217°
2026-04-25 22:13 27.52586 -82.86927 376 ft 131 kts 217°
2026-04-25 22:13 27.51829 -82.87532 380 ft 137 kts 217°
2026-04-25 22:13 27.51063 -82.88138 374 ft 133 kts 217°
2026-04-25 22:14 27.50307 -82.88722 373 ft 136 kts 217°
2026-04-25 22:14 27.49547 -82.89319 377 ft 134 kts 217°
2026-04-25 22:14 27.48789 -82.89924 377 ft 133 kts 217°
2026-04-25 22:14 27.48022 -82.90525 378 ft 131 kts 217°
2026-04-25 22:15 27.47271 -82.91115 380 ft 131 kts 217°
2026-04-25 22:15 27.46520 -82.91710 383 ft 132 kts 217°
2026-04-25 22:15 27.45777 -82.92288 378 ft 130 kts 217°
2026-04-25 22:16 27.44295 -82.93474 376 ft 132 kts 217°
2026-04-25 22:16 27.43548 -82.94068 373 ft 128 kts 217°
2026-04-25 22:16 27.42813 -82.94652 378 ft 132 kts 217°
2026-04-25 22:16 27.42055 -82.95250 376 ft 135 kts 217°
2026-04-25 22:17 27.41299 -82.95850 374 ft 130 kts 217°
2026-04-25 22:17 27.40598 -82.96501 385 ft 122 kts 243°
2026-04-25 22:17 27.40543 -82.97291 395 ft 97 kts 306°
2026-04-25 22:17 27.41143 -82.97804 376 ft 127 kts 322°
2026-04-25 22:18 27.41921 -82.98445 358 ft 135 kts 322°
2026-04-25 22:18 27.42687 -82.99088 377 ft 138 kts 322°
2026-04-25 22:18 27.43468 -82.99746 370 ft 139 kts 322°
2026-04-25 22:18 27.44254 -83.00367 373 ft 137 kts 322°
2026-04-25 22:19 27.45038 -83.01016 368 ft 143 kts 322°
2026-04-25 22:19 27.45812 -83.01668 373 ft 139 kts 322°
2026-04-25 22:19 27.46596 -83.02335 365 ft 144 kts 322°
2026-04-25 22:19 27.47391 -83.02987 362 ft 142 kts 322°
2026-04-25 22:20 27.48192 -83.03633 360 ft 139 kts 322°
2026-04-25 22:20 27.48983 -83.04263 365 ft 138 kts 322°
2026-04-25 22:20 27.49759 -83.04897 364 ft 139 kts 322°
2026-04-25 22:20 27.50538 -83.05526 378 ft 137 kts 322°
2026-04-25 22:21 27.51318 -83.06175 371 ft 139 kts 322°
2026-04-25 22:21 27.52100 -83.06809 361 ft 140 kts 322°
2026-04-25 22:21 27.52880 -83.07447 364 ft 137 kts 322°
2026-04-25 22:21 27.53665 -83.08081 365 ft 135 kts 322°
2026-04-25 22:22 27.54445 -83.08708 366 ft 140 kts 322°
2026-04-25 22:22 27.55234 -83.09363 370 ft 143 kts 322°
2026-04-25 22:22 27.56022 -83.10029 368 ft 144 kts 322°
2026-04-25 22:22 27.56836 -83.10459 374 ft 117 kts 21°
2026-04-25 22:23 27.56745 -83.09777 354 ft 110 kts 147°
2026-04-25 22:23 27.55987 -83.09112 346 ft 149 kts 144°
2026-04-25 22:23 27.55227 -83.08385 360 ft 144 kts 144°
2026-04-25 22:23 27.54473 -83.07688 360 ft 142 kts 144°
2026-04-25 22:24 27.53702 -83.07004 360 ft 139 kts 144°
2026-04-25 22:24 27.52939 -83.06298 370 ft 141 kts 144°
2026-04-25 22:24 27.52165 -83.05571 365 ft 147 kts 144°
2026-04-25 22:24 27.51606 -83.04753 358 ft 130 kts 101°
2026-04-25 22:25 27.52283 -83.04210 319 ft 137 kts 355°
2026-04-25 22:25 27.53076 -83.04858 343 ft 161 kts 323°
2026-04-25 22:25 27.53986 -83.05530 366 ft 151 kts 326°
2026-04-25 22:25 27.54852 -83.06131 364 ft 147 kts 326°
2026-04-25 22:26 27.55709 -83.06740 373 ft 145 kts 326°
2026-04-25 22:26 27.56570 -83.07332 369 ft 146 kts 326°
2026-04-25 22:26 27.57435 -83.07930 366 ft 146 kts 326°
2026-04-25 22:26 27.58310 -83.08490 367 ft 143 kts 338°
2026-04-25 22:27 27.59184 -83.08170 368 ft 139 kts 49°
2026-04-25 22:27 27.59078 -83.07199 281 ft 143 kts 140°
2026-04-25 22:27 27.58209 -83.06538 365 ft 154 kts 147°
2026-04-25 22:27 27.57350 -83.05859 382 ft 154 kts 147°
2026-04-25 22:28 27.56474 -83.05149 381 ft 156 kts 147°
2026-04-25 22:28 27.55594 -83.04436 382 ft 156 kts 147°
2026-04-25 22:28 27.54715 -83.03714 372 ft 157 kts 147°
2026-04-25 22:28 27.53840 -83.03002 369 ft 157 kts 147°
2026-04-25 22:29 27.53157 -83.02112 377 ft 149 kts 113°
2026-04-25 22:29 27.53499 -83.01113 362 ft 145 kts 35°
2026-04-25 22:29 27.54389 -83.01276 386 ft 138 kts 323°
2026-04-25 22:30 27.56111 -83.02667 365 ft 154 kts 322°
2026-04-25 22:30 27.56965 -83.03385 363 ft 152 kts 322°
2026-04-25 22:30 27.57824 -83.04091 369 ft 152 kts 322°
2026-04-25 22:30 27.58394 -83.04555 364 ft 152 kts 322°
2026-04-25 22:31 27.59530 -83.05502 361 ft 153 kts 322°
2026-04-25 22:31 27.60409 -83.06142 373 ft 144 kts 342°
2026-04-25 22:31 27.61142 -83.05444 186 ft 149 kts 75°
2026-04-25 22:31 27.60727 -83.04554 479 ft 128 kts 147°
2026-04-25 22:32 27.59791 -83.03806 216 ft 173 kts 146°
2026-04-25 22:32 27.58935 -83.02988 514 ft 150 kts 145°
2026-04-25 22:32 27.58153 -83.02259 445 ft 147 kts 145°
2026-04-25 22:32 27.57379 -83.01548 411 ft 146 kts 145°
2026-04-25 22:33 27.56579 -83.00829 399 ft 146 kts 145°
2026-04-25 22:33 27.55773 -83.00100 385 ft 149 kts 145°
2026-04-25 22:33 27.54983 -82.99381 380 ft 146 kts 145°
2026-04-25 22:33 27.54191 -82.98644 382 ft 142 kts 128°
2026-04-25 22:34 27.54423 -82.97830 160 ft 145 kts 13°
2026-04-25 22:34 27.55247 -82.98300 491 ft 146 kts 323°
2026-04-25 22:34 27.56112 -82.98855 397 ft 147 kts 324°
2026-04-25 22:34 27.56937 -82.99452 399 ft 143 kts 325°
2026-04-25 22:35 27.57708 -83.00171 543 ft 143 kts 315°
2026-04-25 22:35 27.58689 -83.00426 1394 ft 162 kts
2026-04-25 22:35 27.59761 -82.99911 1953 ft 159 kts 25°
2026-04-25 22:35 27.60668 -82.99240 2694 ft 145 kts 59°
2026-04-25 22:36 27.60547 -82.98209 2994 ft 148 kts 129°
2026-04-25 22:36 27.59546 -82.97882 2322 ft 169 kts 193°
2026-04-25 22:36 27.58715 -82.98783 1678 ft 176 kts 249°
2026-04-25 22:36 27.58883 -83.00148 1185 ft 184 kts 289°
2026-04-25 22:37 27.59629 -83.01350 986 ft 181 kts 319°
2026-04-25 22:37 27.60873 -83.01527 904 ft 191 kts 15°
2026-04-25 22:37 27.61819 -83.00524 987 ft 191 kts 61°
2026-04-25 22:37 27.61901 -82.99075 1075 ft 187 kts 106°
2026-04-25 22:38 27.61103 -82.98001 1165 ft 180 kts 151°
2026-04-25 22:38 27.59907 -82.97893 1245 ft 175 kts 195°
2026-04-25 22:38 27.59040 -82.98778 1304 ft 174 kts 240°
2026-04-25 22:38 27.59024 -83.00118 1343 ft 178 kts 286°
2026-04-25 22:39 27.59894 -83.01100 1383 ft 184 kts 330°
2026-04-25 22:39 27.61175 -83.01122 1418 ft 191 kts 15°
2026-04-25 22:39 27.62149 -83.00142 1459 ft 192 kts 60°
2026-04-25 22:39 27.62280 -82.98700 1491 ft 186 kts 104°
2026-04-25 22:40 27.61517 -82.97592 1504 ft 180 kts 149°
2026-04-25 22:40 27.60329 -82.97429 1510 ft 175 kts 193°
2026-04-25 22:40 27.59416 -82.98273 1517 ft 175 kts 237°
2026-04-25 22:40 27.59326 -82.99628 1524 ft 181 kts 281°
2026-04-25 22:41 27.60139 -83.00700 1509 ft 188 kts 325°
2026-04-25 22:41 27.61430 -83.00865 1510 ft 193 kts
2026-04-25 22:41 27.62508 -83.00002 1519 ft 194 kts 53°
2026-04-25 22:41 27.62799 -82.98568 1518 ft 189 kts 97°
2026-04-25 22:42 27.62166 -82.97333 1519 ft 183 kts 141°
2026-04-25 22:42 27.60994 -82.96958 1515 ft 176 kts 184°
2026-04-25 22:42 27.59967 -82.97629 1517 ft 175 kts 228°
2026-04-25 22:42 27.59683 -82.98939 1523 ft 180 kts 272°
2026-04-25 22:43 27.60333 -83.00137 1543 ft 187 kts 316°
2026-04-25 22:43 27.61572 -83.00566 1609 ft 187 kts 351°
2026-04-25 22:43 27.62843 -83.00821 1987 ft 188 kts 348°
2026-04-25 22:43 27.64127 -83.01084 2060 ft 186 kts 348°
2026-04-25 22:44 27.65411 -83.01345 2057 ft 190 kts 349°
2026-04-25 22:44 27.66661 -83.01016 2208 ft 187 kts 29°
2026-04-25 22:44 27.67421 -82.99902 2321 ft 184 kts 70°
2026-04-25 22:44 27.67371 -82.98488 2342 ft 180 kts 112°
2026-04-25 22:45 27.66566 -82.97491 2247 ft 174 kts 152°
2026-04-25 22:45 27.65374 -82.97215 2050 ft 171 kts 176°
2026-04-25 22:45 27.64205 -82.97051 1901 ft 174 kts 176°
2026-04-25 22:45 27.63014 -82.96887 1787 ft 171 kts 176°
2026-04-25 22:46 27.61829 -82.96730 1712 ft 173 kts 176°
2026-04-25 22:46 27.60686 -82.96865 1692 ft 163 kts 208°
2026-04-25 22:46 27.60194 -82.97968 1490 ft 170 kts 268°
2026-04-25 22:46 27.60872 -82.99057 1234 ft 183 kts 328°
2026-04-25 22:47 27.62124 -82.99285 1162 ft 182 kts 352°
2026-04-25 22:47 27.63387 -82.99451 1248 ft 183 kts 352°
2026-04-25 22:47 27.64669 -82.99624 1372 ft 185 kts 352°
2026-04-25 22:47 27.65949 -82.99793 1479 ft 186 kts 352°
2026-04-25 22:48 27.67239 -82.99955 1499 ft 184 kts 352°
2026-04-25 22:48 27.68524 -83.00113 1367 ft 186 kts 352°
2026-04-25 22:48 27.69802 -83.00283 1388 ft 184 kts 352°
2026-04-25 22:48 27.71084 -83.00452 1554 ft 183 kts 352°
2026-04-25 22:49 27.72298 -83.00609 2290 ft 168 kts 352°
2026-04-25 22:49 27.73401 -83.00770 3276 ft 155 kts 352°
2026-04-25 22:49 27.74608 -83.00926 3685 ft 199 kts 352°
2026-04-25 22:49 27.75896 -83.01097 3649 ft 162 kts 352°
2026-04-25 22:50 27.76997 -83.01244 4044 ft 159 kts 352°
2026-04-25 22:50 27.78036 -83.01359 3604 ft 151 kts 355°
2026-04-25 22:50 27.79240 -83.01409 1567 ft 196 kts 357°
2026-04-25 22:50 27.80601 -83.01479 1038 ft 183 kts 356°
2026-04-25 22:51 27.81764 -83.01459 1332 ft 163 kts
2026-04-25 22:51 27.82858 -83.00991 268 ft 164 kts 36°
2026-04-25 22:51 27.83312 -82.99973 640 ft 142 kts 67°
2026-04-25 22:51 27.83707 -82.98951 283 ft 137 kts 68°
2026-04-25 22:52 27.84110 -82.97975 1208 ft 133 kts 68°
2026-04-25 22:52 27.84515 -82.96950 886 ft 146 kts 68°
2026-04-25 22:52 27.84918 -82.95944 932 ft 140 kts 68°
2026-04-25 22:52 27.85188 -82.95280 858 ft 143 kts 68°
2026-04-25 22:53 27.85739 -82.93926 892 ft 142 kts 68°
2026-04-25 22:53 27.86138 -82.92936 875 ft 139 kts 68°
2026-04-25 22:53 27.86540 -82.91930 886 ft 140 kts 68°
2026-04-25 22:53 27.86943 -82.90925 864 ft 139 kts 68°
2026-04-25 22:54 27.87355 -82.89915 1009 ft 138 kts 68°
2026-04-25 22:54 27.87766 -82.88912 850 ft 140 kts 68°
2026-04-25 22:54 27.88094 -82.87903 873 ft 126 kts 84°
2026-04-25 22:54 27.87820 -82.87029 894 ft 132 kts 128°
2026-04-25 22:55 27.87045 -82.86339 739 ft 160 kts 148°
2026-04-25 22:55 27.86211 -82.85676 973 ft 126 kts 153°
2026-04-25 22:55 27.85423 -82.85134 901 ft 128 kts 153°
2026-04-25 22:55 27.84632 -82.84647 864 ft 132 kts 156°
2026-04-25 22:56 27.83830 -82.84171 934 ft 123 kts 156°
2026-04-25 22:56 27.83027 -82.83683 889 ft 131 kts 156°
2026-04-25 22:56 27.82220 -82.83180 1100 ft 131 kts 156°
2026-04-25 22:56 27.81431 -82.82672 1205 ft 135 kts 149°
2026-04-25 22:57 27.80973 -82.82154 1368 ft 135 kts 137°
2026-04-25 22:57 27.80342 -82.81371 1126 ft 146 kts 136°
2026-04-25 22:57 27.79694 -82.80494 552 ft 168 kts 131°
2026-04-25 22:57 27.78975 -82.79516 635 ft 142 kts 133°
2026-04-25 22:58 27.78342 -82.78642 262 ft 144 kts 113°
2026-04-25 22:58 27.78615 -82.77840 242 ft 100 kts 40°
2026-04-25 22:58 27.79088 -82.77340 335 ft 97 kts 42°
2026-04-25 22:58 27.79572 -82.76794 155 ft 116 kts 44°
2026-04-25 22:59 27.80242 -82.76305 368 ft 120 kts 359°
2026-04-25 22:59 27.81111 -82.76389 402 ft 122 kts 358°
2026-04-25 22:59 27.81964 -82.76154 204 ft 135 kts 25°
2026-04-25 22:59 27.82857 -82.75781 115 ft 143 kts 17°
2026-04-25 23:00 27.83781 -82.75396 251 ft 144 kts 17°
2026-04-25 23:00 27.84724 -82.74995 258 ft 143 kts 17°
2026-04-25 23:00 27.85693 -82.74605 617 ft 151 kts 15°
2026-04-25 23:00 27.86687 -82.74257 894 ft 151 kts 15°
2026-04-25 23:01 27.87685 -82.73901 711 ft 153 kts 15°
2026-04-25 23:01 27.88690 -82.73539 609 ft 150 kts 14°
2026-04-25 23:01 27.89468 -82.72829 671 ft 147 kts 52°
2026-04-25 23:01 27.90089 -82.71879 291 ft 136 kts 53°
2026-04-25 23:02 27.90574 -82.71084 244 ft 117 kts 56°
2026-04-25 23:02 27.90989 -82.70344 154 ft 82 kts 56°
2026-04-25 23:02 27.91166 -82.70040 215 ft 33 kts 56°
2026-04-25 23:02 27.91282 -82.69816 169 ft 36 kts 62°
2026-04-25 23:03 27.91336 -82.69569 138 ft 21 kts 130°
2026-04-25 23:03 27.91308 -82.69481 36 ft 4 kts 129°
2026-04-25 23:03 27.91294 -82.69469 21 ft 2 kts 130°
2026-04-25 23:03 27.91287 -82.69457 20 ft 0 kts 131°
2026-04-25 23:05 27.91287 -82.69458 18 ft 0 kts 128°
2026-04-25 23:28 27.91281 -82.69457 19 ft 0 kts 126°